Location: ????????
(55.3155°N, 39.2900°E)
Time: 09:19:00
(UTC+00:00)

MSX - Visible Passes

Search period start: 17 July 2024 00:00
Search period end: 27 July 2024 00:00
Orbit: 894 x 905 km, 99.0° (Epoch: 16 July)

Date Brightness Start Highest point End Pass type
(mag) Time Alt. Az. Time Alt. Az. Time Alt. Az.
17 Jul 6.0 21:40:17 10° NE 21:43:34 15° E 21:46:51 10° ESE visible
17 Jul 4.1 23:20:33 10° NNE 23:26:20 70° ESE 23:32:06 10° S visible
18 Jul 6.0 21:42:44 10° NE 21:46:11 16° E 21:49:37 10° ESE visible
18 Jul 4.0 23:23:07 10° NNE 23:28:55 73° ESE 23:34:41 10° S visible
19 Jul 5.9 21:45:11 10° NE 21:48:47 17° E 21:52:23 10° ESE visible
19 Jul 4.0 23:25:41 10° NNE 23:31:28 75° ESE 23:37:16 10° SSW visible
20 Jul 5.9 21:47:40 10° NE 21:51:24 17° E 21:55:07 10° SE visible
20 Jul 4.0 23:28:15 10° NNE 23:34:03 78° ESE 23:39:49 10° SSW visible
21 Jul 5.8 21:50:08 10° NE 21:54:00 18° E 21:57:52 10° SE visible
21 Jul 3.9 23:30:48 10° NNE 23:36:37 81° ESE 23:42:22 10° SSW visible
22 Jul 5.8 21:52:37 10° NE 21:56:37 19° E 22:00:35 10° SE visible
22 Jul 3.9 23:33:22 10° NNE 23:39:11 84° ESE 23:44:54 10° SSW visible
23 Jul 5.8 21:55:07 10° NE 21:59:13 20° E 22:03:19 10° SE visible
23 Jul 3.9 23:35:56 10° NNE 23:41:45 87° ESE 23:47:27 11° SSW visible
24 Jul 5.7 21:57:36 10° NE 22:01:49 20° E 22:06:01 10° SE visible
24 Jul 3.9 23:38:30 10° NNE 23:44:19 90° ESE 23:49:59 11° SSW visible
25 Jul 5.7 22:00:06 10° NE 22:04:25 21° E 22:08:44 10° SE visible
25 Jul 3.9 23:41:04 10° NNE 23:46:53 88° WNW 23:52:31 11° SSW visible
26 Jul 5.6 22:02:37 10° NE 22:07:02 22° E 22:11:26 10° SE visible
26 Jul 3.9 23:43:38 10° NNE 23:49:27 85° WNW 23:55:04 11° SSW visible
